Time,TemperatureF,DewpointF,PressureIn,WindDirection,WindDirectionDegrees,WindSpeedMPH,WindSpeedGustMPH,Humidity,HourlyPrecipIn,Conditions,Clouds,dailyrainin,SoftwareType,DateUTC
2013-04-09 00:02:00,13.0,9.0,29.84,North,-999,-999.0,-999.0,83,-99.99,,,-99.99,,2013-04-09 06:02:00,
2013-04-09 00:12:00,13.0,9.0,29.84,North,-999,-999.0,-999.0,83,-99.99,,,-99.99,,2013-04-09 06:12:00,
2013-04-09 00:22:00,13.0,9.0,29.84,North,-999,-999.0,-999.0,83,-99.99,,,-99.99,,2013-04-09 06:22:00,
2013-04-09 01:02:00,11.0,6.0,29.88,North,-999,-999.0,-999.0,81,-99.99,,,-99.99,,2013-04-09 07:02:00,
2013-04-09 01:13:00,10.0,5.0,29.86,North,-999,-999.0,-999.0,80,-99.99,,,-99.99,,2013-04-09 07:13:00,
2013-04-09 01:22:00,10.0,5.0,29.86,North,-999,-999.0,-999.0,80,-99.99,,,-99.99,,2013-04-09 07:22:00,
2013-04-09 01:32:00,10.0,5.0,29.86,North,-999,-999.0,-999.0,80,-99.99,,,-99.99,,2013-04-09 07:32:00,
2013-04-09 01:42:00,11.0,5.0,29.88,North,-999,-999.0,-999.0,79,-99.99,,,-99.99,,2013-04-09 07:42:00,
2013-04-09 01:52:00,11.0,5.0,29.88,North,-999,-999.0,-999.0,79,-99.99,,,-99.99,,2013-04-09 07:52:00,
2013-04-09 02:03:00,11.0,5.0,29.88,North,-999,-999.0,-999.0,79,-99.99,,,-99.99,,2013-04-09 08:03:00,
2013-04-09 02:12:00,11.0,6.0,29.87,North,-999,-999.0,-999.0,79,-99.99,,,-99.99,,2013-04-09 08:12:00,
2013-04-09 02:22:00,11.0,6.0,29.87,North,-999,-999.0,-999.0,79,-99.99,,,-99.99,,2013-04-09 08:22:00,
2013-04-09 02:32:00,11.0,6.0,29.87,North,-999,-999.0,-999.0,79,-99.99,,,-99.99,,2013-04-09 08:32:00,
2013-04-09 02:42:00,11.0,6.0,29.88,North,-999,-999.0,-999.0,80,-99.99,,,-99.99,,2013-04-09 08:42:00,
2013-04-09 02:52:00,11.0,6.0,29.88,North,-999,-999.0,-999.0,80,-99.99,,,-99.99,,2013-04-09 08:52:00,
2013-04-09 03:02:00,11.0,6.0,29.88,North,-999,-999.0,-999.0,80,-99.99,,,-99.99,,2013-04-09 09:02:00,
2013-04-09 03:12:00,11.0,7.0,29.90,North,-999,-999.0,-999.0,84,-99.99,,,-99.99,,2013-04-09 09:12:00,
2013-04-09 03:22:00,11.0,7.0,29.90,North,-999,-999.0,-999.0,84,-99.99,,,-99.99,,2013-04-09 09:22:00,
2013-04-09 03:33:00,11.0,7.0,29.90,North,-999,-999.0,-999.0,84,-99.99,,,-99.99,,2013-04-09 09:33:00,
2013-04-09 03:44:00,11.0,7.0,29.89,North,-999,-999.0,-999.0,85,-99.99,,,-99.99,,2013-04-09 09:44:00,
2013-04-09 03:53:00,11.0,7.0,29.89,North,-999,-999.0,-999.0,85,-99.99,,,-99.99,,2013-04-09 09:53:00,
2013-04-09 04:00:00,9.0,5.0,29.89,North,-999,-999.0,-999.0,85,-99.99,,,-99.99,,2013-04-09 10:00:00,
2013-04-09 04:03:00,11.0,7.0,29.89,North,-999,-999.0,-999.0,85,-99.99,,,-99.99,,2013-04-09 10:03:00,
2013-04-09 04:13:00,9.0,5.0,29.89,North,-999,-999.0,-999.0,85,-99.99,,,-99.99,,2013-04-09 10:13:00,
2013-04-09 04:23:00,9.0,5.0,29.89,North,-999,-999.0,-999.0,85,-99.99,,,-99.99,,2013-04-09 10:23:00,
2013-04-09 04:33:00,9.0,5.0,29.89,North,-999,-999.0,-999.0,85,-99.99,,,-99.99,,2013-04-09 10:33:00,
2013-04-09 04:43:00,9.0,5.0,29.89,North,-999,-999.0,-999.0,85,-99.99,,,-99.99,,2013-04-09 10:43:00,
2013-04-09 04:53:00,9.0,5.0,29.89,North,-999,-999.0,-999.0,85,-99.99,,,-99.99,,2013-04-09 10:53:00,
2013-04-09 10:03:00,6.0,0.0,29.98,North,-999,-999.0,-999.0,78,-99.99,,,-99.99,,2013-04-09 16:03:00,
2013-04-09 10:13:00,6.0,0.0,29.98,North,-999,-999.0,-999.0,78,-99.99,,,-99.99,,2013-04-09 16:13:00,
2013-04-09 10:23:00,6.0,1.0,29.99,North,-999,-999.0,-999.0,79,-99.99,,,-99.99,,2013-04-09 16:23:00,
2013-04-09 10:33:00,6.0,1.0,29.99,North,-999,-999.0,-999.0,79,-99.99,,,-99.99,,2013-04-09 16:33:00,
2013-04-09 10:42:00,6.0,1.0,29.99,North,-999,-999.0,-999.0,79,-99.99,,,-99.99,,2013-04-09 16:42:00,
2013-04-09 10:53:00,6.0,1.0,30.00,North,-999,-999.0,-999.0,78,-99.99,,,-99.99,,2013-04-09 16:53:00,
2013-04-09 11:02:00,6.0,1.0,30.00,North,-999,-999.0,-999.0,78,-99.99,,,-99.99,,2013-04-09 17:02:00,
2013-04-09 11:13:00,6.0,1.0,30.00,North,-999,-999.0,-999.0,78,-99.99,,,-99.99,,2013-04-09 17:13:00,
2013-04-09 11:23:00,6.0,1.0,30.00,North,-999,-999.0,-999.0,78,-99.99,,,-99.99,,2013-04-09 17:23:00,
2013-04-09 17:30:00,6.0,2.0,30.02,North,-999,-999.0,-999.0,81,-99.99,,,-99.99,,2013-04-09 23:30:00,
2013-04-09 17:42:00,6.0,2.0,30.02,North,-999,-999.0,-999.0,81,-99.99,,,-99.99,,2013-04-09 23:42:00,
2013-04-09 17:52:00,6.0,2.0,30.02,North,-999,-999.0,-999.0,81,-99.99,,,-99.99,,2013-04-09 23:52:00,
2013-04-09 18:03:00,6.0,2.0,30.02,North,-999,-999.0,-999.0,81,-99.99,,,-99.99,,2013-04-10 00:03:00,
2013-04-09 18:12:00,6.0,2.0,30.02,North,-999,-999.0,-999.0,81,-99.99,,,-99.99,,2013-04-10 00:12:00,
2013-04-09 18:22:00,6.0,2.0,30.02,North,-999,-999.0,-999.0,81,-99.99,,,-99.99,,2013-04-10 00:22:00,
2013-04-09 18:43:00,6.0,2.0,30.02,North,-999,-999.0,-999.0,81,-99.99,,,-99.99,,2013-04-10 00:43:00,
2013-04-09 18:53:00,6.0,2.0,30.02,North,-999,-999.0,-999.0,81,-99.99,,,-99.99,,2013-04-10 00:53:00,
2013-04-09 19:02:00,6.0,2.0,30.02,North,-999,-999.0,-999.0,81,-99.99,,,-99.99,,2013-04-10 01:02:00,
2013-04-09 19:12:00,6.0,2.0,30.04,North,-999,-999.0,-999.0,82,-99.99,,,-99.99,,2013-04-10 01:12:00,
2013-04-09 19:23:00,6.0,2.0,30.04,North,-999,-999.0,-999.0,82,-99.99,,,-99.99,,2013-04-10 01:23:00,
2013-04-09 19:32:00,6.0,2.0,30.04,North,-999,-999.0,-999.0,82,-99.99,,,-99.99,,2013-04-10 01:32:00,
2013-04-09 19:42:00,6.0,2.0,30.05,North,-999,-999.0,-999.0,82,-99.99,,,-99.99,,2013-04-10 01:42:00,
2013-04-09 19:52:00,6.0,2.0,30.05,North,-999,-999.0,-999.0,82,-99.99,,,-99.99,,2013-04-10 01:52:00,
2013-04-09 20:02:00,6.0,2.0,30.05,North,-999,-999.0,-999.0,82,-99.99,,,-99.99,,2013-04-10 02:02:00,
2013-04-09 20:12:00,5.0,1.0,30.05,North,-999,-999.0,-999.0,82,-99.99,,,-99.99,,2013-04-10 02:12:00,
2013-04-09 20:22:00,5.0,1.0,30.05,North,-999,-999.0,-999.0,82,-99.99,,,-99.99,,2013-04-10 02:22:00,
2013-04-09 20:32:00,5.0,1.0,30.05,North,-999,-999.0,-999.0,82,-99.99,,,-99.99,,2013-04-10 02:32:00,
2013-04-09 20:43:00,4.0,0.0,30.06,North,-999,-999.0,-999.0,83,-99.99,,,-99.99,,2013-04-10 02:43:00,
2013-04-09 20:52:00,4.0,0.0,30.06,North,-999,-999.0,-999.0,83,-99.99,,,-99.99,,2013-04-10 02:52:00,
2013-04-09 21:03:00,4.0,0.0,30.06,North,-999,-999.0,-999.0,83,-99.99,,,-99.99,,2013-04-10 03:03:00,
2013-04-09 21:12:00,4.0,-1.0,30.07,North,-999,-999.0,-999.0,82,-99.99,,,-99.99,,2013-04-10 03:12:00,
2013-04-09 21:22:00,4.0,-1.0,30.07,North,-999,-999.0,-999.0,82,-99.99,,,-99.99,,2013-04-10 03:22:00,
2013-04-09 21:32:00,4.0,-1.0,30.07,North,-999,-999.0,-999.0,82,-99.99,,,-99.99,,2013-04-10 03:32:00,
2013-04-09 21:43:00,2.0,-2.0,30.07,North,-999,-999.0,-999.0,83,-99.99,,,-99.99,,2013-04-10 03:43:00,
2013-04-09 21:52:00,2.0,-2.0,30.07,North,-999,-999.0,-999.0,83,-99.99,,,-99.99,,2013-04-10 03:52:00,
2013-04-09 22:03:00,2.0,-2.0,30.07,North,-999,-999.0,-999.0,83,-99.99,,,-99.99,,2013-04-10 04:03:00,
2013-04-09 22:13:00,1.0,-3.0,30.08,North,-999,-999.0,-999.0,83,-99.99,,,-99.99,,2013-04-10 04:13:00,
2013-04-09 22:23:00,1.0,-3.0,30.08,North,-999,-999.0,-999.0,83,-99.99,,,-99.99,,2013-04-10 04:23:00,
2013-04-09 22:33:00,1.0,-3.0,30.08,North,-999,-999.0,-999.0,83,-99.99,,,-99.99,,2013-04-10 04:33:00,
2013-04-09 22:42:00,1.0,-3.0,30.08,North,-999,-999.0,-999.0,82,-99.99,,,-99.99,,2013-04-10 04:42:00,
2013-04-09 22:52:00,1.0,-3.0,30.08,North,-999,-999.0,-999.0,82,-99.99,,,-99.99,,2013-04-10 04:52:00,
2013-04-09 23:02:00,1.0,-3.0,30.08,North,-999,-999.0,-999.0,82,-99.99,,,-99.99,,2013-04-10 05:02:00,
2013-04-09 23:13:00,1.0,-3.0,30.06,North,-999,-999.0,-999.0,83,-99.99,,,-99.99,,2013-04-10 05:13:00,
2013-04-09 23:23:00,1.0,-3.0,30.06,North,-999,-999.0,-999.0,83,-99.99,,,-99.99,,2013-04-10 05:23:00,
2013-04-09 23:33:00,1.0,-3.0,30.06,North,-999,-999.0,-999.0,83,-99.99,,,-99.99,,2013-04-10 05:33:00,
2013-04-09 23:42:00,-1.0,-5.0,30.06,North,-999,-999.0,-999.0,82,-99.99,,,-99.99,,2013-04-10 05:42:00,
2013-04-09 23:52:00,-1.0,-5.0,30.06,North,-999,-999.0,-999.0,82,-99.99,,,-99.99,,2013-04-10 05:52:00,